Location: Newark
(44.6028°N, 124.0883°W)
Time: 12:01:15
(UTC+00:00)

Vanguard 1 Rocket - Pass Details

Date: 30 October 2019
Orbit: 651 x 4226 km, 34.3° (Epoch: 21 November)

Event Time Altitude Azimuth Distance (km) Brightness Sun altitude
Rises 23:42:48 0° 278° (W) 6,976 12.7 13.0°
Reaches altitude 10° 23:48:21 10° 267° (W) 6,435 12.9 12.2°
Maximum altitude 00:04:05 25° 222° (SW) 6,059 13.1 9.8°
Drops below altitude 10° 00:22:11 10° 178° (S) 7,297 12.4 7.0°
Sets 00:29:24 0° 166° (SSE) 8,044 12.4 5.8°
